Tiempo cada hora Alibaevo

Hoy, 28 Julio, Miércoles

Tiempo Temperatura Precipitaciones Viento Presión Humedad
00:00 +15°C° 0 mm 0 mps 734 mmHg 49%
01:00 +15°C° 0 mm 0 mps 734 mmHg 50%
02:00 +15°C° 0 mm 1 mps 734 mmHg 53%
03:00 +15°C° 0 mm 1 mps 734 mmHg 56%
04:00 +14°C° 0 mm 1 mps 734 mmHg 59%
05:00 +16°C° 0 mm 1 mps 734 mmHg 58%
06:00 +19°C° 0 mm 1 mps 734 mmHg 56%
07:00 +21°C° 0 mm 1 mps 734 mmHg 54%
08:00 +21°C° 0 mm 2 mps 734 mmHg 51%
09:00 +22°C° 0 mm 3 mps 734 mmHg 49%
10:00 +23°C° 0 mm 4 mps 734 mmHg 46%
11:00 +25°C° 0 mm 4 mps 734 mmHg 40%
12:00 +26°C° 0 mm 5 mps 733 mmHg 35%
13:00 +27°C° 0 mm 5 mps 733 mmHg 29%
14:00 +28°C° 0 mm 6 mps 733 mmHg 28%
15:00 +28°C° 0 mm 6 mps 733 mmHg 26%
16:00 +28°C° 0 mm 6 mps 732 mmHg 25%
17:00 +27°C° 0 mm 6 mps 733 mmHg 27%
18:00 +24°C° 0 mm 6 mps 733 mmHg 29%
19:00 +23°C° 0 mm 5 mps 733 mmHg 31%
20:00 +21°C° 0 mm 5 mps 733 mmHg 38%
21:00 +18°C° 0 mm 4 mps 734 mmHg 44%
22:00 +14°C° 0 mm 3 mps 734 mmHg 50%
23:00 +13°C° 0 mm 3 mps 734 mmHg 53%

Mañana, 29 Julio, Jueves

Tiempo Temperatura Precipitaciones Viento Presión Humedad
00:00 +13°C° 0 mm 2 mps 734 mmHg 56%
01:00 +12°C° 0 mm 2 mps 735 mmHg 59%
02:00 +12°C° 0 mm 2 mps 735 mmHg 61%
03:00 +10°C° 0 mm 2 mps 735 mmHg 64%
04:00 +10°C° 0 mm 2 mps 735 mmHg 67%
05:00 +13°C° 0 mm 2 mps 735 mmHg 62%
06:00 +15°C° 0 mm 1 mps 735 mmHg 56%
07:00 +18°C° 0 mm 1 mps 736 mmHg 50%
08:00 +20°C° 0 mm 1 mps 736 mmHg 43%
09:00 +22°C° 0 mm 1 mps 736 mmHg 36%
10:00 +24°C° 0 mm 1 mps 736 mmHg 29%
11:00 +25°C° 0 mm 2 mps 735 mmHg 27%
12:00 +26°C° 0 mm 2 mps 735 mmHg 24%
13:00 +27°C° 0 mm 2 mps 735 mmHg 21%
14:00 +28°C° 0 mm 3 mps 735 mmHg 20%
15:00 +28°C° 0 mm 3 mps 735 mmHg 18%
16:00 +28°C° 0 mm 3 mps 734 mmHg 17%
17:00 +27°C° 0 mm 2 mps 734 mmHg 20%
18:00 +26°C° 0 mm 2 mps 734 mmHg 23%
19:00 +25°C° 0 mm 1 mps 734 mmHg 25%
20:00 +23°C° 0 mm 1 mps 733 mmHg 27%
21:00 +21°C° 0 mm 2 mps 733 mmHg 28%
22:00 +19°C° 0 mm 2 mps 733 mmHg 29%
23:00 +19°C° 0 mm 2 mps 733 mmHg 30%

Pasado mañana, 30 Julio, Viernes

Tiempo Temperatura Precipitaciones Viento Presión Humedad
00:00 +18°C° 0 mm 2 mps 733 mmHg 31%
01:00 +18°C° 0 mm 2 mps 733 mmHg 32%
02:00 +18°C° 0 mm 2 mps 733 mmHg 32%
03:00 +19°C° 0 mm 2 mps 733 mmHg 32%
04:00 +19°C° 0 mm 2 mps 733 mmHg 33%
05:00 +20°C° 0 mm 3 mps 733 mmHg 32%
06:00 +21°C° 0 mm 4 mps 733 mmHg 31%
07:00 +23°C° 0 mm 5 mps 733 mmHg 29%
08:00 +24°C° 0 mm 6 mps 732 mmHg 27%
09:00 +26°C° 0 mm 7 mps 732 mmHg 25%
10:00 +28°C° 0 mm 8 mps 732 mmHg 23%
11:00 +31°C° 0 mm 9 mps 731 mmHg 24%
12:00 +32°C° 0 mm 9 mps 731 mmHg 24%
13:00 +34°C° 0 mm 9 mps 730 mmHg 25%
14:00 +34°C° 0 mm 8 mps 730 mmHg 26%
15:00 +34°C° 0 mm 8 mps 730 mmHg 28%
16:00 +33°C° 0 mm 7 mps 730 mmHg 30%
17:00 +33°C° 0 mm 7 mps 730 mmHg 31%
18:00 +32°C° 0 mm 6 mps 730 mmHg 32%
19:00 +30°C° 0 mm 6 mps 730 mmHg 33%
20:00 +28°C° 0 mm 5 mps 731 mmHg 44%
21:00 +25°C° 0 mm 3 mps 731 mmHg 55%
22:00 +21°C° 0 mm 2 mps 731 mmHg 66%
23:00 +21°C° 0 mm 1 mps 731 mmHg 71%

31 Julio, Sábado

Tiempo Temperatura Precipitaciones Viento Presión Humedad
00:00 +20°C° 0 mm 1 mps 732 mmHg 76%
01:00 +17°C° 0 mm 0 mps 732 mmHg 81%
02:00 +17°C° 0 mm 0 mps 732 mmHg 83%
03:00 +16°C° 0 mm 0 mps 732 mmHg 84%
04:00 +16°C° 0 mm 0 mps 732 mmHg 86%
05:00 +18°C° 0 mm 0 mps 732 mmHg 78%
06:00 +20°C° 0 mm 0 mps 733 mmHg 71%
07:00 +21°C° 0 mm 0 mps 733 mmHg 63%
08:00 +26°C° 0 mm 1 mps 733 mmHg 54%
09:00 +28°C° 0 mm 2 mps 733 mmHg 45%
10:00 +30°C° 0 mm 2 mps 733 mmHg 37%
11:00 +33°C° 0 mm 3 mps 733 mmHg 34%
12:00 +34°C° 0 mm 3 mps 732 mmHg 30%
13:00 +35°C° 0 mm 4 mps 732 mmHg 27%
14:00 +34°C° 0.1 mm 3 mps 732 mmHg 30%
15:00 +33°C° 0.1 mm 3 mps 732 mmHg 33%
16:00 +31°C° 0.1 mm 2 mps 731 mmHg 36%
17:00 +28°C° 1.6 mm 2 mps 732 mmHg 53%
18:00 +24°C° 1.6 mm 2 mps 732 mmHg 70%
19:00 +20°C° 1.6 mm 2 mps 732 mmHg 88%
20:00 +21°C° 0.4 mm 1 mps 732 mmHg 87%
21:00 +21°C° 0.4 mm 1 mps 732 mmHg 87%
22:00 +20°C° 0.4 mm 1 mps 732 mmHg 86%
23:00 +20°C° 0.2 mm 1 mps 732 mmHg 87%

1 Agosto, Domingo

Tiempo Temperatura Precipitaciones Viento Presión Humedad
00:00 +20°C° 0.2 mm 2 mps 732 mmHg 88%
01:00 +20°C° 0.2 mm 2 mps 732 mmHg 88%
02:00 +19°C° 0.5 mm 2 mps 732 mmHg 89%
03:00 +19°C° 0.5 mm 2 mps 732 mmHg 90%
04:00 +19°C° 0.5 mm 2 mps 732 mmHg 91%
05:00 +20°C° 0 mm 2 mps 732 mmHg 87%
06:00 +21°C° 0 mm 2 mps 732 mmHg 83%
07:00 +23°C° 0 mm 1 mps 733 mmHg 79%
08:00 +25°C° 0 mm 2 mps 733 mmHg 69%
09:00 +28°C° 0 mm 3 mps 733 mmHg 59%
10:00 +30°C° 0 mm 4 mps 733 mmHg 49%
11:00 +32°C° 0 mm 4 mps 733 mmHg 44%
12:00 +33°C° 0 mm 5 mps 733 mmHg 39%
13:00 +34°C° 0 mm 5 mps 733 mmHg 33%
14:00 +34°C° 0 mm 5 mps 733 mmHg 31%
15:00 +34°C° 0 mm 5 mps 733 mmHg 29%
16:00 +35°C° 0 mm 4 mps 733 mmHg 28%
17:00 +33°C° 0 mm 4 mps 733 mmHg 31%
18:00 +31°C° 0 mm 3 mps 733 mmHg 34%
19:00 +29°C° 0 mm 2 mps 733 mmHg 38%
20:00 +27°C° 0 mm 2 mps 733 mmHg 42%
21:00 +25°C° 0 mm 2 mps 734 mmHg 46%
22:00 +23°C° 0 mm 2 mps 734 mmHg 50%
23:00 +23°C° 0 mm 2 mps 734 mmHg 51%

2 Agosto, Lunes

Tiempo Temperatura Precipitaciones Viento Presión Humedad
00:00 +22°C° 0 mm 1 mps 734 mmHg 52%
01:00 +22°C° 0 mm 1 mps 734 mmHg 54%
02:00 +21°C° 0 mm 1 mps 735 mmHg 55%
03:00 +21°C° 0 mm 1 mps 735 mmHg 56%
04:00 +21°C° 0 mm 1 mps 735 mmHg 57%
05:00 +22°C° 0 mm 1 mps 735 mmHg 53%
06:00 +24°C° 0 mm 1 mps 735 mmHg 50%
07:00 +26°C° 0 mm 1 mps 736 mmHg 46%
08:00 +28°C° 0 mm 1 mps 736 mmHg 41%
09:00 +30°C° 0 mm 2 mps 736 mmHg 36%
10:00 +32°C° 0 mm 2 mps 736 mmHg 31%
11:00 +34°C° 0 mm 2 mps 736 mmHg 28%
12:00 +34°C° 0 mm 1 mps 736 mmHg 25%
13:00 +35°C° 0 mm 1 mps 736 mmHg 23%
14:00 +36°C° 0 mm 1 mps 735 mmHg 22%
15:00 +36°C° 0 mm 1 mps 735 mmHg 21%
16:00 +36°C° 0 mm 1 mps 735 mmHg 21%
17:00 +34°C° 0 mm 1 mps 735 mmHg 24%
18:00 +34°C° 0 mm 2 mps 735 mmHg 27%
19:00 +32°C° 0 mm 2 mps 735 mmHg 30%
20:00 +30°C° 0 mm 2 mps 735 mmHg 33%
21:00 +28°C° 0 mm 1 mps 735 mmHg 36%
22:00 +26°C° 0 mm 1 mps 735 mmHg 39%
23:00 +25°C° 0 mm 1 mps 735 mmHg 40%
Mostrar más

Necesitamos Su Consentimiento

Meteoprog y nuestros Proveedores de Servicios pueden almacenar y acceder a sus datos personales como cookies, identificadores de dispositivo u otras tecnologías similares de su dispositivo y procesar dichos datos para personalizar contenido y anuncios, además de ofrecer funciones de redes sociales y analizar el tráfico.

  • Almacenar y/o acceder a información en su dispositivo

    Se puede almacenar o acceder a cookies, identificadores de dispositivo u otra información de su dispositivo para los fines anteriormente indicados.

  • Anuncios y contenido personalizados, medición de anuncios y contenido, percepciones del público, y desarrollo de productos

    Los anuncios y el contenido pueden personalizarse en base a su perfil. Se pueden añadir más datos para personalizar mejor los anuncios y contenidos. Se puede medir el rendimiento de los anuncios y contenidos. Se puede obtener la percepción sobre el público que ha visto los anuncios y contenidos. Dichos datos pueden usarse para desarrollar o mejorar la experiencia del usuario, sistemas y software.

Al hacer clic en ‘Estoy De Acuerdo’ usted permitirá el uso de las cookies, identificadores de dispositivo, balizas web u otras tecnologías similares indicadas. Su configuración puede cambiarse desde el navegador de su dispositivo.

Para ciertos fines, los intereses legítimos pueden ser considerados por encima del consentimiento. Puede leer más sobre ello en nuestra Política de Privacidad y Cookies.